Wind_Speed
6 7 7 13 8 9 14 14 12 16 17 17 8 12 11 7 6 4 2 0 1 3 12 18 19 23 24 26 30 32 33 34 36 35 37 39 44 43 46 48 44 41 45 46
4 7 10 15 13 15 21 18 15 17 23 5 3 9 8 9 8 5 4 3 4 6 11 14 15 18 21 24 27 28 30 31 33 34 36 38 37 39 41 42 40 44 43 45
12 5 8 11 9 15 6 6 5 8 8 6 5 10 11 9 8 7 5 5 5 4 10 14 17 19 21 22 23 25 27 29 29 31 31 31 30 31 32 34 37 40 43 45
7 3 7 8 4 6 6 8 7 1 3 3 4 5 6 5 7 7 7 7 6 10 14 15 16 19 20 22 22 22 24 26 28 27 26 28 30 32 33 33 37 37 44 48
4 6 11 11 9 5 4 7 5 7 7 5 7 5 3 5 5 5 6 9 10 10 12 14 15 15 20 22 21 20 22 24 24 26 25 25 28 30 29 31 33 38 38 42
3 6 6 6 3 0 3 6 2 6 10 11 7 3 3 8 6 10 14 12 12 11 12 14 13 14 18 20 21 19 18 20 22 25 27 28 26 27 29 30 31 34 40 43
9 9 6 5 4 2 2 6 1 6 10 13 5 2 6 11 10 16 16 14 12 12 14 12 11 14 18 17 18 17 17 18 21 21 21 24 26 27 28 31 36 37 32 36
3 5 8 2 2 6 2 1 2 3 6 8 5 10 13 12 11 16 15 13 11 13 12 12 11 13 16 17 15 16 18 20 21 21 20 22 23 24 25 27 28 28 27 26
6 5 3 3 4 4 2 1 2 4 7 8 11 10 11 11 10 14 14 12 11 12 11 11 12 12 13 14 14 14 16 19 19 20 19 20 21 22 20 22 24 23 22 21
2 4 6 6 3 3 3 3 2 4 10 11 10 12 12 11 12 13 13 12 11 11 10 10 11 11 12 12 13 13 14 15 18 19 22 18 19 18 19 20 21 21 22 23
5 4 3 7 7 6 4 7 8 7 7 11 14 13 12 11 14 13 13 11 11 10 9 9 10 12 12 14 13 12 13 14 16 19 19 23 20 21 22 22 20 18 22 22
7 4 3 3 10 10 8 6 7 10 10 10 15 13 17 12 12 14 14 14 11 10 10 9 10 11 11 12 14 13 12 13 17 19 19 17 21 22 21 19 17 18 18 20
4 4 3 5 9 8 7 8 9 8 13 12 15 19 15 14 13 16 15 14 11 10 9 9 10 11 11 12 13 16 16 14 16 17 18 20 20 21 22 21 18 20 21 20
8 10 5 6 5 10 11 14 14 15 14 17 18 16 17 14 16 15 14 15 14 12 10 10 10 11 11 10 11 14 15 14 15 16 16 16 16 14 14 18 20 21 19 18
5 1 4 8 12 11 17 18 11 10 13 13 16 17 17 16 15 16 17 14 14 13 12 12 11 11 8 7 9 10 11 11 12 12 12 12 12 13 14 15 16 18 19 18
5 7 10 11 12 12 13 13 12 12 11 13 14 15 16 16 18 19 16 16 16 12 10 10 10 8 6 6 6 6 6 8 11 12 11 10 10 11 15 15 14 15 17 18
12 8 9 10 13 12 12 10 11 12 13 14 15 19 21 21 20 18 16 12 10 12 10 9 8 5 2 2 1 2 6 9 10 9 8 9 8 8 9 8 9 11 14 14
4 7 10 15 13 12 11 13 16 17 15 20 23 23 23 22 17 19 16 15 14 11 10 8 5 2 1 3 1 4 7 8 8 7 6 8 9 8 9 10 12 13 14 15
9 10 13 15 17 15 15 14 17 19 22 26 25 22 23 21 21 20 18 17 14 13 8 4 4 3 2 2 4 6 7 7 5 7 7 7 7 8 10 11 12 11 14 16
7 12 17 14 16 17 15 19 21 21 23 25 23 22 20 20 20 18 17 17 14 9 8 7 4 2 2 3 5 6 6 6 6 6 6 7 9 11 12 11 11 14 16 16
8 14 15 18 16 19 22 24 24 24 24 25 27 24 24 21 18 17 17 13 12 10 7 4 1 1 2 4 5 6 7 7 6 6 8 11 12 11 11 12 14 16 18 19
12 12 15 19 18 16 18 22 22 24 25 24 22 23 23 19 17 15 13 17 15 11 7 3 1 0 3 5 6 7 6 6 6 8 10 11 12 12 13 15 17 19 19 18
15 17 18 18 17 17 17 17 19 24 25 23 24 25 24 22 19 17 12 14 14 11 6 3 1 2 4 6 6 6 5 6 7 9 11 11 11 12 14 17 18 18 18 17
16 16 15 16 19 19 14 14 17 19 22 21 22 23 22 21 15 10 7 16 13 10 6 4 1 2 4 5 5 4 5 6 8 10 10 10 11 12 15 18 18 18 18 19
16 17 17 17 13 10 15 17 17 18 18 18 19 17 16 16 13 15 15 15 12 8 6 4 1 1 3 4 4 4 5 7 8 10 10 11 13 15 18 20 21 22 22 21
13 11 13 13 14 17 18 18 16 19 20 19 18 17 15 12 13 18 16 13 10 7 5 3 2 2 4 5 4 4 5 7 9 10 11 13 16 19 23 24 22 21 20 19
12 14 14 12 12 15 19 20 20 19 22 23 20 17 16 16 19 17 14 12 9 7 5 2 1 3 5 5 3 4 7 9 10 10 13 17 20 22 22 21 19 18 17 17
Wind_Direction
257 270 275 269 254 254 254 245 248 277 266 267 212 203 188 172 163 162 151 176 349 357 30 31 25 24 19 19 15 16 20 21 20 16 20 22 28 28 36 33 30 31 33 35
255 256 257 271 263 253 260 262 257 257 268 142 97 112 147 159 164 158 160 99 67 48 50 36 28 28 29 27 18 21 24 24 21 20 22 24 26 26 31 34 29 32 37 37
275 248 303 289 235 238 237 218 205 236 250 158 165 167 165 161 159 162 154 111 87 63 61 53 49 47 42 40 32 25 26 28 26 24 24 26 27 31 31 33 36 32 36 39
284 334 268 247 266 231 227 258 224 205 184 160 137 128 126 139 147 153 147 124 101 86 73 63 61 58 57 52 44 34 32 30 29 30 28 28 30 29 31 33 36 34 35 40
248 251 277 301 278 194 191 285 211 183 127 103 110 78 26 143 138 144 132 122 111 94 82 71 65 66 64 58 53 41 33 35 33 34 31 31 31 30 32 37 39 42 39 41
230 257 261 223 237 329 138 289 105 135 151 149 147 155 222 153 122 116 121 122 110 95 86 76 66 70 68 57 53 44 36 38 45 42 43 39 35 34 37 39 41 42 42 44
242 255 256 248 154 190 109 252 147 150 157 158 183 157 132 125 117 126 126 119 110 92 79 73 74 71 66 56 44 50 46 46 44 46 41 45 47 45 42 43 44 44 43 42
217 243 271 47 66 177 258 33 341 119 150 158 109 121 127 127 130 130 124 117 110 97 82 72 76 74 63 53 51 55 55 49 42 39 38 36 35 41 46 43 43 42 42 42
196 227 182 184 202 311 318 236 179 133 145 134 135 137 132 133 129 126 121 118 113 102 90 75 65 69 64 54 53 52 50 47 46 45 42 39 38 37 39 44 43 42 40 39
14 232 228 201 177 163 181 152 138 136 144 144 139 139 131 129 123 119 123 121 116 104 91 79 70 66 61 61 63 58 51 48 47 46 40 40 44 39 44 49 45 40 35 32
256 279 326 236 193 143 120 107 104 106 138 144 136 136 135 130 131 128 125 124 121 110 101 88 79 69 65 62 68 64 60 53 52 44 38 43 46 42 41 42 43 41 36 34
245 200 241 265 155 144 136 133 127 138 130 138 139 138 130 126 137 135 129 128 116 107 100 93 88 78 70 68 61 64 59 55 51 45 43 39 37 39 43 38 34 36 34 30
216 118 149 135 135 139 130 149 155 143 142 144 128 132 131 138 139 136 131 129 123 115 106 97 92 83 74 73 66 62 64 58 46 42 39 33 31 29 23 26 34 31 25 22
135 116 124 167 162 147 139 138 137 131 130 127 130 133 138 139 139 133 135 138 133 124 117 108 95 89 79 73 68 60 55 44 33 27 22 20 21 16 11 9 6 9 17 14
165 21 149 125 132 136 140 129 132 131 131 129 140 142 145 141 140 145 148 140 135 125 119 118 104 92 86 75 69 57 45 34 21 9 357 353 346 350 353 354 356 353 349 350
127 116 128 140 145 149 138 141 145 154 146 145 148 153 149 148 151 151 154 156 150 147 132 130 125 106 90 76 75 57 37 14 359 350 346 344 337 334 337 340 338 342 348 354
129 144 153 156 169 153 155 154 154 155 151 151 154 153 155 153 152 155 159 159 155 143 139 132 127 124 101 15 330 356 353 346 343 342 344 345 349 356 353 356 357 352 352 358
120 155 172 167 160 150 153 153 152 154 161 162 162 162 157 157 163 166 161 155 148 143 141 141 149 149 56 69 64 346 343 349 359 16 29 23 22 22 16 12 8 2 357 355
145 146 145 150 153 150 153 154 158 164 166 169 163 162 169 171 168 165 162 157 153 149 145 151 137 123 83 10 357 357 357 4 11 8 7 2 2 0 356 357 359 359 355 351
112 123 125 124 137 144 142 163 166 165 169 168 165 160 160 164 165 165 166 158 159 155 142 139 139 94 59 24 2 359 3 10 14 12 3 359 359 1 359 1 358 349 348 347
125 129 133 139 143 164 171 169 168 165 169 171 167 165 166 164 167 166 165 158 161 160 159 156 152 68 19 356 355 0 360 4 2 358 360 360 356 357 355 352 348 344 342 339
134 133 143 151 149 149 166 169 171 166 167 167 168 164 160 161 166 168 175 176 168 173 178 179 172 14 348 349 350 350 355 1 0 357 357 357 355 351 348 345 345 343 341 341
141 148 151 153 149 149 152 163 168 170 169 169 168 168 169 170 170 157 146 172 174 177 187 188 188 324 339 343 348 355 359 356 357 359 357 353 346 342 342 342 341 338 338 339
128 139 136 142 144 139 131 153 164 174 174 171 172 171 168 164 168 181 174 173 178 181 183 180 219 307 342 345 351 352 352 353 351 351 350 341 334 335 335 336 335 333 329 327
136 139 142 143 137 134 146 151 154 156 158 157 159 163 171 178 180 171 168 167 173 178 173 174 196 313 337 342 342 337 337 341 343 342 337 332 330 329 329 328 327 324 320 317
138 139 146 158 157 157 154 153 145 153 153 150 159 164 165 165 160 159 161 163 167 176 182 187 245 310 332 334 328 312 319 328 331 330 325 323 323 324 325 326 327 328 327 324
129 141 137 138 160 168 166 163 154 158 168 167 159 167 169 163 161 161 165 167 173 176 180 191 252 319 327 329 317 297 311 321 324 323 321 322 324 326 329 330 331 333 334 332
Height
814 812 811 807 810 808 806 798 801 786 788 774 793 804 811 819 823 825 828 830 830 827 823 821 819 817 813 808 804 797 789 783 779 775 767 758 748 744 737 727 722 722 713 707
833 812 812 807 809 803 792 790 788 781 776 781 795 803 812 814 818 822 826 828 828 827 824 823 822 820 817 812 809 804 798 792 787 782 774 768 763 757 750 742 737 727 720 722
806 805 808 803 805 790 784 779 775 780 769 790 798 800 806 812 816 820 825 827 828 828 826 825 824 823 820 817 813 810 805 800 796 791 787 782 778 772 767 760 753 746 738 729
810 810 815 794 779 779 778 770 769 777 783 786 791 801 805 810 815 819 824 826 828 828 827 826 825 824 824 821 817 816 811 808 804 800 797 791 786 780 775 770 762 756 746 737
809 804 791 783 772 777 775 765 763 771 789 797 802 804 812 811 815 819 823 826 827 828 827 827 826 826 825 823 821 819 818 814 811 806 803 799 793 788 785 779 773 767 766 758
816 804 796 778 775 775 773 774 769 777 789 794 799 801 806 811 815 821 824 827 827 828 827 827 828 828 826 826 824 823 823 820 816 813 809 805 802 798 792 786 782 776 773 768
805 796 781 770 774 775 782 777 773 778 785 792 794 799 803 809 817 820 824 827 828 828 828 829 830 829 828 827 826 826 826 823 820 817 815 812 809 804 800 795 789 785 784 784
793 787 782 777 779 778 777 780 778 779 785 791 797 801 804 810 817 822 825 827 828 829 830 831 831 831 830 829 829 828 827 825 823 820 817 814 811 808 805 802 798 797 796 795
785 780 779 777 780 781 780 779 781 782 785 790 796 802 808 814 818 822 826 828 830 830 831 833 834 833 832 832 831 830 829 827 826 825 823 820 817 813 810 809 808 806 805 805
778 774 773 774 777 777 779 781 782 782 786 790 797 803 809 815 820 824 828 830 831 831 833 834 834 835 835 834 833 832 832 831 829 827 826 825 822 820 817 815 814 814 812 811
777 772 774 770 769 773 780 781 783 786 788 791 796 804 809 816 822 826 829 831 832 833 834 834 835 835 835 835 834 833 833 834 832 830 829 827 826 825 823 821 821 819 818 816
765 762 767 767 767 774 780 783 786 789 792 796 799 804 810 817 822 826 829 832 834 835 835 835 835 836 836 836 835 835 835 835 833 832 832 831 829 827 825 825 824 822 820 817
758 761 769 769 771 774 780 784 788 791 794 798 803 806 811 817 822 826 830 832 834 836 836 836 836 837 837 837 837 836 835 835 834 833 833 831 829 827 826 827 825 822 820 819
760 763 769 770 770 774 779 785 789 794 798 800 804 809 813 818 822 826 830 833 835 836 837 837 838 838 838 839 838 837 837 836 835 834 833 832 832 832 832 829 826 824 823 821
761 760 760 765 770 775 780 784 791 796 799 803 807 810 814 818 822 826 830 833 835 837 838 839 840 840 840 840 840 839 839 839 838 837 836 834 834 833 832 830 828 826 824 822
760 762 764 766 772 777 779 785 792 796 801 805 808 811 814 818 822 826 830 833 835 837 839 840 841 842 842 842 841 841 841 840 839 838 837 836 834 833 831 830 828 827 825 822
759 764 766 769 772 776 780 786 790 795 800 804 808 811 814 818 823 827 830 833 836 838 840 841 842 842 842 842 842 842 841 841 839 838 837 836 835 834 833 831 829 828 825 822
748 753 758 762 768 774 781 785 790 794 798 802 807 810 814 818 822 827 830 833 836 838 841 842 842 842 842 842 842 842 841 840 839 838 837 836 835 834 833 831 829 826 823 821
750 754 758 763 767 772 779 784 788 793 797 801 805 809 813 819 823 827 830 833 836 838 841 842 842 842 843 843 843 842 841 840 839 838 837 836 835 835 833 831 829 827 825 822
753 756 759 765 769 774 780 785 789 794 798 802 806 811 816 819 823 828 831 833 836 839 840 841 842 842 842 842 841 841 840 839 838 837 837 837 835 833 831 830 828 826 824 822
754 758 763 767 772 776 780 784 788 793 798 802 806 811 815 820 824 827 831 834 837 838 840 841 841 841 841 841 840 839 838 837 837 837 835 833 832 830 829 827 826 823 821 818
757 761 765 769 773 778 782 786 789 794 799 804 808 812 817 822 825 828 831 833 835 838 839 840 841 841 840 839 839 837 836 836 836 834 833 831 830 828 827 825 823 820 818 815
758 762 767 771 775 780 785 789 792 795 800 804 808 812 816 820 824 827 830 833 835 837 838 839 840 840 839 839 838 836 836 835 834 833 831 830 828 827 825 823 821 818 815 811
762 766 770 774 778 783 787 791 794 798 801 805 809 813 816 821 825 827 829 832 834 836 838 839 839 839 838 838 837 836 835 834 833 832 831 829 828 826 824 821 818 815 812 809
765 769 773 777 781 785 788 792 796 800 805 808 812 816 818 821 823 825 828 831 834 836 837 838 838 838 838 837 836 835 835 834 833 831 830 828 826 824 822 819 815 812 808 805
768 772 775 778 780 784 788 792 796 800 804 809 813 816 819 821 823 826 829 832 834 835 836 837 837 837 837 836 835 835 834 833 832 830 829 827 824 822 818 814 811 807 804 802
771 774 777 780 782 785 788 792 795 799 803 807 811 816 818 821 824 827 830 832 834 835 836 837 837 836 836 835 834 834 833 832 831 829 827 824 821 818 814 811 808 805 802 799